Year,Month,Day,Hour,Minute,Value (Times are PST for barometer in hPa)
2020,09,26,00,00,1011.31
2020,09,26,00,01,1011.25
2020,09,26,00,02,1011.28
2020,09,26,00,03,1011.31
2020,09,26,00,04,1011.31
2020,09,26,00,05,1011.38
2020,09,26,00,06,1011.38
2020,09,26,00,07,1011.38
2020,09,26,00,08,1011.38
2020,09,26,00,09,1011.38
2020,09,26,00,10,1011.35
2020,09,26,00,11,1011.35
2020,09,26,00,12,1011.38
2020,09,26,00,13,1011.38
2020,09,26,00,14,1011.38
2020,09,26,00,15,1011.41
2020,09,26,00,16,1011.45
2020,09,26,00,17,1011.45
2020,09,26,00,18,1011.41
2020,09,26,00,19,1011.41
2020,09,26,00,20,1011.48
2020,09,26,00,21,1011.41
2020,09,26,00,22,1011.48
2020,09,26,00,23,1011.45
2020,09,26,00,24,1011.48
2020,09,26,00,25,1011.48
2020,09,26,00,26,1011.55
2020,09,26,00,27,1011.51
2020,09,26,00,28,1011.62
2020,09,26,00,29,1011.62
2020,09,26,00,30,1011.65
2020,09,26,00,31,1011.68
2020,09,26,00,32,1011.65
2020,09,26,00,33,1011.72
2020,09,26,00,34,1011.79
2020,09,26,00,35,1011.79
2020,09,26,00,36,1011.82
2020,09,26,00,37,1011.85
2020,09,26,00,38,1011.85
2020,09,26,00,39,1011.89
2020,09,26,00,40,1011.89
2020,09,26,00,41,1011.92
2020,09,26,00,42,1011.89
2020,09,26,00,43,1011.92
2020,09,26,00,44,1011.92
2020,09,26,00,45,1011.89
2020,09,26,00,46,1011.89
2020,09,26,00,47,1011.89
2020,09,26,00,48,1011.92
2020,09,26,00,49,1011.89
2020,09,26,00,50,1011.89
2020,09,26,00,51,1011.89
2020,09,26,00,52,1011.92
2020,09,26,00,53,1011.92
2020,09,26,00,54,1011.92
2020,09,26,00,55,1011.89
2020,09,26,00,56,1011.92
2020,09,26,00,57,1011.89
2020,09,26,00,58,1011.85
2020,09,26,00,59,1011.89
2020,09,26,01,00,1011.89
2020,09,26,01,01,1011.89
2020,09,26,01,02,1011.85
2020,09,26,01,03,1011.89
2020,09,26,01,04,1011.89
2020,09,26,01,05,1011.89
2020,09,26,01,06,1011.99
2020,09,26,01,07,1011.95
2020,09,26,01,08,1011.99
2020,09,26,01,09,1011.99
2020,09,26,01,10,1011.99
2020,09,26,01,11,1011.99
2020,09,26,01,12,1012.02
2020,09,26,01,13,1011.99
2020,09,26,01,14,1011.99
2020,09,26,01,15,1011.99
2020,09,26,01,16,1012.02
2020,09,26,01,17,1012.02
2020,09,26,01,18,1012.06
2020,09,26,01,19,1012.09
2020,09,26,01,20,1012.16
2020,09,26,01,21,1012.19
2020,09,26,01,22,1012.23
2020,09,26,01,23,1012.33
2020,09,26,01,24,1012.29
2020,09,26,01,25,1012.29
2020,09,26,01,26,1012.29
2020,09,26,01,27,1012.29
2020,09,26,01,28,1012.26
2020,09,26,01,29,1012.29
2020,09,26,01,30,1012.33
2020,09,26,01,31,1012.36
2020,09,26,01,32,1012.33
2020,09,26,01,33,1012.36
2020,09,26,01,34,1012.40
2020,09,26,01,35,1012.36
2020,09,26,01,36,1012.36
2020,09,26,01,37,1012.43
2020,09,26,01,38,1012.43
2020,09,26,01,39,1012.43
2020,09,26,01,40,1012.50
2020,09,26,01,41,1012.53
2020,09,26,01,42,1012.50
2020,09,26,01,43,1012.53
2020,09,26,01,44,1012.46
2020,09,26,01,45,1012.53
2020,09,26,01,46,1012.50
2020,09,26,01,47,1012.53
2020,09,26,01,48,1012.53
2020,09,26,01,49,1012.56
2020,09,26,01,50,1012.60
2020,09,26,01,51,1012.60
2020,09,26,01,52,1012.63
2020,09,26,01,53,1012.60
2020,09,26,01,54,1012.63
2020,09,26,01,55,1012.63
2020,09,26,01,56,1012.63
2020,09,26,01,57,1012.63
2020,09,26,01,58,1012.63
2020,09,26,01,59,1012.63
2020,09,26,02,00,1012.70
2020,09,26,02,01,1012.73
2020,09,26,02,02,1012.67
2020,09,26,02,03,1012.67
2020,09,26,02,04,1012.70
2020,09,26,02,05,1012.67
2020,09,26,02,06,1012.73
2020,09,26,02,07,1012.70
2020,09,26,02,08,1012.73
2020,09,26,02,09,1012.77
2020,09,26,02,10,1012.80
2020,09,26,02,11,1012.80
2020,09,26,02,12,1012.77
2020,09,26,02,13,1012.80
2020,09,26,02,14,1012.80
2020,09,26,02,15,1012.77
2020,09,26,02,16,1012.80
2020,09,26,02,17,1012.77
2020,09,26,02,18,1012.77
2020,09,26,02,19,1012.80
2020,09,26,02,20,1012.84
2020,09,26,02,21,1012.84
2020,09,26,02,22,1012.87
2020,09,26,02,23,1012.87
2020,09,26,02,24,1012.90
2020,09,26,02,25,1012.90
2020,09,26,02,26,1012.87
2020,09,26,02,27,1012.90
2020,09,26,02,28,1012.94
2020,09,26,02,29,1012.94
2020,09,26,02,30,1012.94
2020,09,26,02,31,1012.97
2020,09,26,02,32,1012.97
2020,09,26,02,33,1012.97
2020,09,26,02,34,1012.97
2020,09,26,02,35,1013.00
2020,09,26,02,36,1013.04
2020,09,26,02,37,1013.07
2020,09,26,02,38,1013.11
2020,09,26,02,39,1013.11
2020,09,26,02,40,1013.11
2020,09,26,02,41,1013.11
2020,09,26,02,42,1013.17
2020,09,26,02,43,1013.17
2020,09,26,02,44,1013.21
2020,09,26,02,45,1013.28
2020,09,26,02,46,1013.31
2020,09,26,02,47,1013.28
2020,09,26,02,48,1013.38
2020,09,26,02,49,1013.41
2020,09,26,02,50,1013.34
2020,09,26,02,51,1013.38
2020,09,26,02,52,1013.34
2020,09,26,02,53,1013.38
2020,09,26,02,54,1013.34
2020,09,26,02,55,1013.41
2020,09,26,02,56,1013.41
2020,09,26,02,57,1013.44
2020,09,26,02,58,1013.48
2020,09,26,02,59,1013.38
2020,09,26,03,00,1013.38
2020,09,26,03,01,1013.38
2020,09,26,03,02,1013.41
2020,09,26,03,03,1013.41
2020,09,26,03,04,1013.41
2020,09,26,03,05,1013.41
2020,09,26,03,06,1013.41
2020,09,26,03,07,1013.44
2020,09,26,03,08,1013.41
2020,09,26,03,09,1013.41
2020,09,26,03,10,1013.41
2020,09,26,03,11,1013.41
2020,09,26,03,12,1013.41
2020,09,26,03,13,1013.44
2020,09,26,03,14,1013.41
2020,09,26,03,15,1013.41
2020,09,26,03,16,1013.41
2020,09,26,03,17,1013.34
2020,09,26,03,18,1013.34
2020,09,26,03,19,1013.34
2020,09,26,03,20,1013.31
2020,09,26,03,21,1013.34
2020,09,26,03,22,1013.31
2020,09,26,03,23,1013.38
2020,09,26,03,24,1013.31
2020,09,26,03,25,1013.38
2020,09,26,03,26,1013.38
2020,09,26,03,27,1013.41
2020,09,26,03,28,1013.41
2020,09,26,03,29,1013.44
2020,09,26,03,30,1013.44
2020,09,26,03,31,1013.44
2020,09,26,03,32,1013.48
2020,09,26,03,33,1013.48
2020,09,26,03,34,1013.48
2020,09,26,03,35,1013.48
2020,09,26,03,36,1013.48
2020,09,26,03,37,1013.48
2020,09,26,03,38,1013.48
2020,09,26,03,39,1013.48
2020,09,26,03,40,1013.48
2020,09,26,03,41,1013.48
2020,09,26,03,42,1013.48
2020,09,26,03,43,1013.48
2020,09,26,03,44,1013.51
2020,09,26,03,45,1013.48
2020,09,26,03,46,1013.55
2020,09,26,03,47,1013.51
2020,09,26,03,48,1013.55
2020,09,26,03,49,1013.51
2020,09,26,03,50,1013.51
2020,09,26,03,51,1013.51
2020,09,26,03,52,1013.51
2020,09,26,03,53,1013.51
2020,09,26,03,54,1013.55
2020,09,26,03,55,1013.58
2020,09,26,03,56,1013.58
2020,09,26,03,57,1013.61
2020,09,26,03,58,1013.61
2020,09,26,03,59,1013.61
2020,09,26,04,00,1013.58
2020,09,26,04,01,1013.55
2020,09,26,04,02,1013.55
2020,09,26,04,03,1013.55
2020,09,26,04,04,1013.55
2020,09,26,04,05,1013.55
2020,09,26,04,06,1013.51
2020,09,26,04,07,1013.58
2020,09,26,04,08,1013.55
2020,09,26,04,09,1013.58
2020,09,26,04,10,1013.58
2020,09,26,04,11,1013.58
2020,09,26,04,12,1013.58
2020,09,26,04,13,1013.58
2020,09,26,04,14,1013.61
2020,09,26,04,15,1013.55
2020,09,26,04,16,1013.65
2020,09,26,04,17,1013.65
2020,09,26,04,18,1013.65
2020,09,26,04,19,1013.65
2020,09,26,04,20,1013.61
2020,09,26,04,21,1013.65
2020,09,26,04,22,1013.65
2020,09,26,04,23,1013.65
2020,09,26,04,24,1013.65
2020,09,26,04,25,1013.65
2020,09,26,04,26,1013.65
2020,09,26,04,27,1013.61
2020,09,26,04,28,1013.61
2020,09,26,04,29,1013.61
2020,09,26,04,30,1013.61
2020,09,26,04,31,1013.61
2020,09,26,04,32,1013.61
2020,09,26,04,33,1013.61
2020,09,26,04,34,1013.61
2020,09,26,04,35,1013.68
2020,09,26,04,36,1013.68
2020,09,26,04,37,1013.68
2020,09,26,04,38,1013.72
2020,09,26,04,39,1013.68
2020,09,26,04,40,1013.72
2020,09,26,04,41,1013.68
2020,09,26,04,42,1013.72
2020,09,26,04,43,1013.72
2020,09,26,04,44,1013.68
2020,09,26,04,45,1013.72
2020,09,26,04,46,1013.75
2020,09,26,04,47,1013.78
2020,09,26,04,48,1013.78
2020,09,26,04,49,1013.78
2020,09,26,04,50,1013.72
2020,09,26,04,51,1013.72
2020,09,26,04,52,1013.72
2020,09,26,04,53,1013.72
2020,09,26,04,54,1013.68
2020,09,26,04,55,1013.68
2020,09,26,04,56,1013.72
2020,09,26,04,57,1013.75
2020,09,26,04,58,1013.68
2020,09,26,04,59,1013.72
2020,09,26,05,00,1013.72
2020,09,26,05,01,1013.68
2020,09,26,05,02,1013.75
2020,09,26,05,03,1013.72
2020,09,26,05,04,1013.68
2020,09,26,05,05,1013.72
2020,09,26,05,06,1013.72
2020,09,26,05,07,1013.72
2020,09,26,05,08,1013.72
2020,09,26,05,09,1013.75
2020,09,26,05,10,1013.75
2020,09,26,05,11,1013.75
2020,09,26,05,12,1013.75
2020,09,26,05,13,1013.72
2020,09,26,05,14,1013.75
2020,09,26,05,15,1013.78
2020,09,26,05,16,1013.75
2020,09,26,05,17,1013.75
2020,09,26,05,18,1013.75
2020,09,26,05,19,1013.75
2020,09,26,05,20,1013.75
2020,09,26,05,21,1013.75
2020,09,26,05,22,1013.78
2020,09,26,05,23,1013.78
2020,09,26,05,24,1013.78
2020,09,26,05,25,1013.75
2020,09,26,05,26,1013.75
2020,09,26,05,27,1013.72
2020,09,26,05,28,1013.75
2020,09,26,05,29,1013.75
2020,09,26,05,30,1013.78
2020,09,26,05,31,1013.78
2020,09,26,05,32,1013.78
2020,09,26,05,33,1013.78
2020,09,26,05,34,1013.82
2020,09,26,05,35,1013.75
2020,09,26,05,36,1013.75
2020,09,26,05,37,1013.75
2020,09,26,05,38,1013.72
2020,09,26,05,39,1013.75
2020,09,26,05,40,1013.72
2020,09,26,05,41,1013.68
2020,09,26,05,42,1013.68
2020,09,26,05,43,1013.68
2020,09,26,05,44,1013.75
2020,09,26,05,45,1013.75
2020,09,26,05,46,1013.78
2020,09,26,05,47,1013.78
2020,09,26,05,48,1013.78
2020,09,26,05,49,1013.78
2020,09,26,05,50,1013.78
2020,09,26,05,51,1013.85
2020,09,26,05,52,1013.85
2020,09,26,05,53,1013.85
2020,09,26,05,54,1013.92
2020,09,26,05,55,1013.92
2020,09,26,05,56,1013.89
2020,09,26,05,57,1013.95
2020,09,26,05,58,1013.92
2020,09,26,05,59,1013.92
2020,09,26,06,00,1013.95
2020,09,26,06,01,1013.95
2020,09,26,06,02,1013.99
2020,09,26,06,03,1013.99
2020,09,26,06,04,1014.05
2020,09,26,06,05,1014.02
2020,09,26,06,06,1013.99
2020,09,26,06,07,1014.02
2020,09,26,06,08,1013.95
2020,09,26,06,09,1013.95
2020,09,26,06,10,1013.95
2020,09,26,06,11,1013.95
2020,09,26,06,12,1013.95
2020,09,26,06,13,1013.95
2020,09,26,06,14,1013.99
2020,09,26,06,15,1014.05
2020,09,26,06,16,1014.09
2020,09,26,06,17,1014.05
2020,09,26,06,18,1014.09
2020,09,26,06,19,1014.12
2020,09,26,06,20,1014.09
2020,09,26,06,21,1014.12
2020,09,26,06,22,1014.09
2020,09,26,06,23,1014.05
2020,09,26,06,24,1014.05
2020,09,26,06,25,1014.09
2020,09,26,06,26,1014.09
2020,09,26,06,27,1014.09
2020,09,26,06,28,1014.12
2020,09,26,06,29,1014.16
2020,09,26,06,30,1014.16
2020,09,26,06,31,1014.12
2020,09,26,06,32,1014.16
2020,09,26,06,33,1014.19
2020,09,26,06,34,1014.19
2020,09,26,06,35,1014.19
2020,09,26,06,36,1014.22
2020,09,26,06,37,1014.22
2020,09,26,06,38,1014.26
2020,09,26,06,39,1014.19
2020,09,26,06,40,1014.19
2020,09,26,06,41,1014.19
2020,09,26,06,42,1014.19
2020,09,26,06,43,1014.19
2020,09,26,06,44,1014.19
2020,09,26,06,45,1014.22
2020,09,26,06,46,1014.22
2020,09,26,06,47,1014.26
2020,09,26,06,48,1014.26
2020,09,26,06,49,1014.22
2020,09,26,06,50,1014.19
2020,09,26,06,51,1014.19
2020,09,26,06,52,1014.16
2020,09,26,06,53,1014.16
2020,09,26,06,54,1014.16
2020,09,26,06,55,1014.19
2020,09,26,06,56,1014.22
2020,09,26,06,57,1014.22
2020,09,26,06,58,1014.26
2020,09,26,06,59,1014.29
2020,09,26,07,00,1014.36
2020,09,26,07,01,1014.33
2020,09,26,07,02,1014.33
2020,09,26,07,03,1014.33
2020,09,26,07,04,1014.36
2020,09,26,07,05,1014.36
2020,09,26,07,06,1014.33
2020,09,26,07,07,1014.36
2020,09,26,07,08,1014.36
2020,09,26,07,09,1014.43
2020,09,26,07,10,1014.43
2020,09,26,07,11,1014.43
2020,09,26,07,12,1014.46
2020,09,26,07,13,1014.43
2020,09,26,07,14,1014.46
2020,09,26,07,15,1014.46
2020,09,26,07,16,1014.46
2020,09,26,07,17,1014.49
2020,09,26,07,18,1014.49
2020,09,26,07,19,1014.53
2020,09,26,07,20,1014.56
2020,09,26,07,21,1014.56
2020,09,26,07,22,1014.60
2020,09,26,07,23,1014.56
2020,09,26,07,24,1014.60
2020,09,26,07,25,1014.60
2020,09,26,07,26,1014.60
2020,09,26,07,27,1014.60
2020,09,26,07,28,1014.63
2020,09,26,07,29,1014.63
2020,09,26,07,30,1014.63
2020,09,26,07,31,1014.63
2020,09,26,07,32,1014.63
2020,09,26,07,33,1014.66
2020,09,26,07,34,1014.63
2020,09,26,07,35,1014.66
2020,09,26,07,36,1014.70
2020,09,26,07,37,1014.66
2020,09,26,07,38,1014.66
2020,09,26,07,39,1014.63
2020,09,26,07,40,1014.66
2020,09,26,07,41,1014.70
2020,09,26,07,42,1014.73
2020,09,26,07,43,1014.73
2020,09,26,07,44,1014.73
2020,09,26,07,45,1014.77
2020,09,26,07,46,1014.80
2020,09,26,07,47,1014.80
2020,09,26,07,48,1014.80
2020,09,26,07,49,1014.83
2020,09,26,07,50,1014.83
2020,09,26,07,51,1014.83
2020,09,26,07,52,1014.83
2020,09,26,07,53,1014.87
2020,09,26,07,54,1014.87
2020,09,26,07,55,1014.87
2020,09,26,07,56,1014.93
2020,09,26,07,57,1014.90
2020,09,26,07,58,1014.93
2020,09,26,07,59,1014.97
2020,09,26,08,00,1015.00
2020,09,26,08,01,1014.93
2020,09,26,08,02,1014.97
2020,09,26,08,03,1015.04
2020,09,26,08,04,1014.97
2020,09,26,08,05,1014.97
2020,09,26,08,06,1014.97
2020,09,26,08,07,1014.97
2020,09,26,08,08,1014.93
2020,09,26,08,09,1015.04
2020,09,26,08,10,1015.00
2020,09,26,08,11,1015.04
2020,09,26,08,12,1015.04
2020,09,26,08,13,1015.07
2020,09,26,08,14,1015.10
2020,09,26,08,15,1015.10
2020,09,26,08,16,1015.17
2020,09,26,08,17,1015.14
2020,09,26,08,18,1015.07
2020,09,26,08,19,1015.10
2020,09,26,08,20,1015.10
2020,09,26,08,21,1015.07
2020,09,26,08,22,1015.10
2020,09,26,08,23,1015.07
2020,09,26,08,24,1015.10
2020,09,26,08,25,1015.07
2020,09,26,08,26,1015.04
2020,09,26,08,27,1015.00
2020,09,26,08,28,1014.97
2020,09,26,08,29,1015.00
2020,09,26,08,30,1015.04
2020,09,26,08,31,1015.04
2020,09,26,08,32,1015.07
2020,09,26,08,33,1015.10
2020,09,26,08,34,1015.10
2020,09,26,08,35,1015.14
2020,09,26,08,36,1015.17
2020,09,26,08,37,1015.17
2020,09,26,08,38,1015.21
2020,09,26,08,39,1015.21
2020,09,26,08,40,1015.24
2020,09,26,08,41,1015.21
2020,09,26,08,42,1015.21
2020,09,26,08,43,1015.21
2020,09,26,08,44,1015.24
2020,09,26,08,45,1015.24
2020,09,26,08,46,1015.24
2020,09,26,08,47,1015.24
2020,09,26,08,48,1015.31
2020,09,26,08,49,1015.31
2020,09,26,08,50,1015.31
2020,09,26,08,51,1015.34
2020,09,26,08,52,1015.31
2020,09,26,08,53,1015.31
2020,09,26,08,54,1015.27
2020,09,26,08,55,1015.31
2020,09,26,08,56,1015.27
2020,09,26,08,57,1015.21
2020,09,26,08,58,1015.21
2020,09,26,08,59,1015.21
2020,09,26,09,00,1015.24
2020,09,26,09,01,1015.24
2020,09,26,09,02,1015.24
2020,09,26,09,03,1015.24
2020,09,26,09,04,1015.24
2020,09,26,09,05,1015.27
2020,09,26,09,06,1015.27
2020,09,26,09,07,1015.27
2020,09,26,09,08,1015.27
2020,09,26,09,09,1015.24
2020,09,26,09,10,1015.24
2020,09,26,09,11,1015.24
2020,09,26,09,12,1015.27
2020,09,26,09,13,1015.31
2020,09,26,09,14,1015.27
2020,09,26,09,15,1015.24
2020,09,26,09,16,1015.24
2020,09,26,09,17,1015.27
2020,09,26,09,18,1015.27
2020,09,26,09,19,1015.31
2020,09,26,09,20,1015.31
2020,09,26,09,21,1015.27
2020,09,26,09,22,1015.31
2020,09,26,09,23,1015.34
2020,09,26,09,24,1015.34
2020,09,26,09,25,1015.31
2020,09,26,09,26,1015.31
2020,09,26,09,27,1015.34
2020,09,26,09,28,1015.31
2020,09,26,09,29,1015.31
2020,09,26,09,30,1015.31
2020,09,26,09,31,1015.27
2020,09,26,09,32,1015.31
2020,09,26,09,33,1015.31
2020,09,26,09,34,1015.34
2020,09,26,09,35,1015.38
2020,09,26,09,36,1015.41
2020,09,26,09,37,1015.48
2020,09,26,09,38,1015.51
2020,09,26,09,39,1015.51
2020,09,26,09,40,1015.51
2020,09,26,09,41,1015.54
2020,09,26,09,42,1015.54
2020,09,26,09,43,1015.58
2020,09,26,09,44,1015.58
2020,09,26,09,45,1015.61
2020,09,26,09,46,1015.61
2020,09,26,09,47,1015.65
2020,09,26,09,48,1015.65
2020,09,26,09,49,1015.65
2020,09,26,09,50,1015.65
2020,09,26,09,51,1015.65
2020,09,26,09,52,1015.61
2020,09,26,09,53,1015.61
2020,09,26,09,54,1015.61
2020,09,26,09,55,1015.58
2020,09,26,09,56,1015.65
2020,09,26,09,57,1015.68
2020,09,26,09,58,1015.71
2020,09,26,09,59,1015.71
2020,09,26,10,00,1015.75
2020,09,26,10,01,1015.71
2020,09,26,10,02,1015.71
2020,09,26,10,03,1015.75
2020,09,26,10,04,1015.71
2020,09,26,10,05,1015.78
2020,09,26,10,06,1015.78
2020,09,26,10,07,1015.82
2020,09,26,10,08,1015.85
2020,09,26,10,09,1015.92
2020,09,26,10,10,1015.88
2020,09,26,10,11,1015.92
2020,09,26,10,12,1015.92
2020,09,26,10,13,1015.92
2020,09,26,10,14,1015.88
2020,09,26,10,15,1015.95
2020,09,26,10,16,1015.95
2020,09,26,10,17,1015.92
2020,09,26,10,18,1015.95
2020,09,26,10,19,1016.02
2020,09,26,10,20,1015.98
2020,09,26,10,21,1015.98
2020,09,26,10,22,1015.98
2020,09,26,10,23,1016.02
2020,09,26,10,24,1016.02
2020,09,26,10,25,1016.09
2020,09,26,10,26,1016.09
2020,09,26,10,27,1016.09
2020,09,26,10,28,1016.19
2020,09,26,10,29,1016.15
2020,09,26,10,30,1016.22
2020,09,26,10,31,1016.22
2020,09,26,10,32,1016.22
2020,09,26,10,33,1016.22
2020,09,26,10,34,1016.22
2020,09,26,10,35,1016.26
2020,09,26,10,36,1016.19
2020,09,26,10,37,1016.15
2020,09,26,10,38,1016.19
2020,09,26,10,39,1016.15
2020,09,26,10,40,1016.12
2020,09,26,10,41,1016.12
2020,09,26,10,42,1016.15
2020,09,26,10,43,1016.12
2020,09,26,10,44,1016.15
2020,09,26,10,45,1016.12
2020,09,26,10,46,1016.12
2020,09,26,10,47,1016.12
2020,09,26,10,48,1016.09
2020,09,26,10,49,1016.09
2020,09,26,10,50,1016.09
2020,09,26,10,51,1016.12
2020,09,26,10,52,1016.12
2020,09,26,10,53,1016.15
2020,09,26,10,54,1016.12
2020,09,26,10,55,1016.12
2020,09,26,10,56,1016.12
2020,09,26,10,57,1016.12
2020,09,26,10,58,1016.12
2020,09,26,10,59,1016.12
2020,09,26,11,00,1016.19
2020,09,26,11,01,1016.19
2020,09,26,11,02,1016.22
2020,09,26,11,03,1016.26
2020,09,26,11,04,1016.32
2020,09,26,11,05,1016.32
2020,09,26,11,06,1016.32
2020,09,26,11,07,1016.42
2020,09,26,11,08,1016.39
2020,09,26,11,09,1016.39
2020,09,26,11,10,1016.42
2020,09,26,11,11,1016.39
2020,09,26,11,12,1016.39
2020,09,26,11,13,1016.39
2020,09,26,11,14,1016.42
2020,09,26,11,15,1016.42
2020,09,26,11,16,1016.46
2020,09,26,11,17,1016.39
2020,09,26,11,18,1016.42
2020,09,26,11,19,1016.42
2020,09,26,11,20,1016.46
2020,09,26,11,21,1016.42
2020,09,26,11,22,1016.39
2020,09,26,11,23,1016.39
2020,09,26,11,24,1016.39
2020,09,26,11,25,1016.39
2020,09,26,11,26,1016.36
2020,09,26,11,27,1016.42
2020,09,26,11,28,1016.42
2020,09,26,11,29,1016.46
2020,09,26,11,30,1016.49
2020,09,26,11,31,1016.42
2020,09,26,11,32,1016.46
2020,09,26,11,33,1016.42
2020,09,26,11,34,1016.42
2020,09,26,11,35,1016.39
2020,09,26,11,36,1016.42
2020,09,26,11,37,1016.42
2020,09,26,11,38,1016.49
2020,09,26,11,39,1016.49
2020,09,26,11,40,1016.49
2020,09,26,11,41,1016.46
2020,09,26,11,42,1016.46
2020,09,26,11,43,1016.46
2020,09,26,11,44,1016.49
2020,09,26,11,45,1016.53
2020,09,26,11,46,1016.53
2020,09,26,11,47,1016.59
2020,09,26,11,48,1016.59
2020,09,26,11,49,1016.59
2020,09,26,11,50,1016.63
2020,09,26,11,51,1016.63
2020,09,26,11,52,1016.59
2020,09,26,11,53,1016.59
2020,09,26,11,54,1016.59
2020,09,26,11,55,1016.59
2020,09,26,11,56,1016.63
2020,09,26,11,57,1016.70
2020,09,26,11,58,1016.73
2020,09,26,11,59,1016.76
2020,09,26,12,00,1016.83
2020,09,26,12,01,1016.90
2020,09,26,14,39,1018.46
2020,09,26,14,40,1018.42
2020,09,26,14,41,1018.42
2020,09,26,14,42,1018.39
2020,09,26,14,43,1018.39
2020,09,26,14,44,1018.39
2020,09,26,14,45,1018.39
2020,09,26,14,46,1018.39
2020,09,26,14,47,1018.36
2020,09,26,14,48,1018.39
2020,09,26,14,49,1018.36
2020,09,26,14,50,1018.36
2020,09,26,14,51,1018.32
2020,09,26,14,52,1018.32
2020,09,26,14,53,1018.29
2020,09,26,14,54,1018.39
2020,09,26,14,55,1018.32
2020,09,26,14,56,1018.32
2020,09,26,14,57,1018.32
2020,09,26,14,58,1018.32
2020,09,26,14,59,1018.32
2020,09,26,15,00,1018.32
2020,09,26,15,01,1018.32
2020,09,26,15,02,1018.29
2020,09,26,15,03,1018.36
2020,09,26,15,04,1018.36
2020,09,26,15,05,1018.39
2020,09,26,15,06,1018.39
2020,09,26,15,07,1018.46
2020,09,26,15,08,1018.49
2020,09,26,15,09,1018.49
2020,09,26,15,10,1018.52
2020,09,26,15,11,1018.56
2020,09,26,15,12,1018.56
2020,09,26,15,13,1018.52
2020,09,26,15,14,1018.49
2020,09,26,15,15,1018.46
2020,09,26,15,16,1018.46
2020,09,26,15,17,1018.46
2020,09,26,15,18,1018.49
2020,09,26,15,19,1018.56
2020,09,26,15,20,1018.56
2020,09,26,15,21,1018.56
2020,09,26,15,22,1018.56
2020,09,26,15,23,1018.56
2020,09,26,15,24,1018.56
2020,09,26,15,25,1018.56
2020,09,26,15,26,1018.49
2020,09,26,15,27,1018.52
2020,09,26,15,28,1018.52
2020,09,26,15,29,1018.56
2020,09,26,15,30,1018.49
2020,09,26,15,31,1018.46
2020,09,26,15,32,1018.49
2020,09,26,15,33,1018.46
2020,09,26,15,34,1018.49
2020,09,26,15,35,1018.52
2020,09,26,15,36,1018.49
2020,09,26,15,37,1018.52
2020,09,26,15,38,1018.56
2020,09,26,15,39,1018.59
2020,09,26,15,40,1018.52
2020,09,26,15,41,1018.52
2020,09,26,15,42,1018.49
2020,09,26,15,43,1018.56
2020,09,26,15,44,1018.59
2020,09,26,15,45,1018.63
2020,09,26,15,46,1018.66
2020,09,26,15,47,1018.69
2020,09,26,15,48,1018.66
2020,09,26,15,49,1018.69
2020,09,26,15,50,1018.69
2020,09,26,15,51,1018.73
2020,09,26,15,52,1018.69
2020,09,26,15,53,1018.73
2020,09,26,15,54,1018.73
2020,09,26,15,55,1018.73
2020,09,26,15,56,1018.76
2020,09,26,15,57,1018.80
2020,09,26,15,58,1018.80
2020,09,26,15,59,1018.83
2020,09,26,16,00,1018.83
2020,09,26,16,01,1018.86
2020,09,26,16,02,1018.83
2020,09,26,16,03,1018.86
2020,09,26,16,04,1018.90
2020,09,26,16,05,1018.90
2020,09,26,16,06,1018.90
2020,09,26,16,07,1018.90
2020,09,26,16,08,1018.93
2020,09,26,16,09,1018.93
2020,09,26,16,10,1018.90
2020,09,26,16,11,1018.90
2020,09,26,16,12,1018.90
2020,09,26,16,13,1018.86
2020,09,26,16,14,1018.90
2020,09,26,16,15,1018.96
2020,09,26,16,16,1019.03
2020,09,26,16,17,1019.00
2020,09,26,16,18,1019.03
2020,09,26,16,19,1019.03
2020,09,26,16,20,1019.07
2020,09,26,16,21,1019.10
2020,09,26,16,22,1019.07
2020,09,26,16,23,1019.07
2020,09,26,16,24,1019.07
2020,09,26,16,25,1019.10
2020,09,26,16,26,1019.10
2020,09,26,16,27,1019.07
2020,09,26,16,28,1019.07
2020,09,26,16,29,1019.10
2020,09,26,16,30,1019.10
2020,09,26,16,31,1019.07
2020,09,26,16,32,1019.07
2020,09,26,16,33,1019.07
2020,09,26,16,34,1019.07
2020,09,26,16,35,1019.07
2020,09,26,16,36,1019.10
2020,09,26,16,37,1019.13
2020,09,26,16,38,1019.17
2020,09,26,16,39,1019.20
2020,09,26,16,40,1019.27
2020,09,26,16,41,1019.24
2020,09,26,16,42,1019.27
2020,09,26,16,43,1019.24
2020,09,26,16,44,1019.24
2020,09,26,16,45,1019.27
2020,09,26,16,46,1019.20
2020,09,26,16,47,1019.20
2020,09,26,16,48,1019.24
2020,09,26,16,49,1019.27
2020,09,26,16,50,1019.27
2020,09,26,16,51,1019.34
2020,09,26,16,52,1019.30
2020,09,26,16,53,1019.34
2020,09,26,16,54,1019.40
2020,09,26,16,55,1019.47
2020,09,26,16,56,1019.44
2020,09,26,16,57,1019.51
2020,09,26,16,58,1019.51
2020,09,26,16,59,1019.51
2020,09,26,17,00,1019.54
2020,09,26,17,01,1019.54
2020,09,26,17,02,1019.54
2020,09,26,17,03,1019.54
2020,09,26,17,04,1019.57
2020,09,26,17,05,1019.61
2020,09,26,17,06,1019.61
2020,09,26,17,07,1019.57
2020,09,26,17,08,1019.64
2020,09,26,17,09,1019.64
2020,09,26,17,10,1019.71
2020,09,26,17,11,1019.71
2020,09,26,17,12,1019.74
2020,09,26,17,13,1019.78
2020,09,26,17,14,1019.81
2020,09,26,17,15,1019.85
2020,09,26,17,16,1019.85
2020,09,26,17,17,1019.88
2020,09,26,17,18,1019.88
2020,09,26,17,19,1019.95
2020,09,26,17,20,1019.95
2020,09,26,17,21,1019.95
2020,09,26,17,22,1019.95
2020,09,26,17,23,1019.95
2020,09,26,17,24,1019.95
2020,09,26,17,25,1020.01
2020,09,26,17,26,1019.98
2020,09,26,17,27,1019.98
2020,09,26,17,28,1020.01
2020,09,26,17,29,1019.98
2020,09,26,17,30,1020.05
2020,09,26,17,31,1020.08
2020,09,26,17,32,1020.05
2020,09,26,17,33,1020.08
2020,09,26,17,34,1020.08
2020,09,26,17,35,1020.08
2020,09,26,17,36,1020.15
2020,09,26,17,37,1020.18
2020,09,26,17,38,1020.15
2020,09,26,17,39,1020.18
2020,09,26,17,40,1020.18
2020,09,26,17,41,1020.18
2020,09,26,17,42,1020.18
2020,09,26,17,43,1020.22
2020,09,26,17,44,1020.18
2020,09,26,17,45,1020.22
2020,09,26,17,46,1020.18
2020,09,26,17,47,1020.22
2020,09,26,17,48,1020.22
2020,09,26,17,49,1020.25
2020,09,26,17,50,1020.25
2020,09,26,17,51,1020.25
2020,09,26,17,52,1020.22
2020,09,26,17,53,1020.25
2020,09,26,17,54,1020.25
2020,09,26,17,55,1020.25
2020,09,26,17,56,1020.25
2020,09,26,17,57,1020.29
2020,09,26,17,58,1020.29
2020,09,26,17,59,1020.29
2020,09,26,18,00,1020.32
2020,09,26,18,01,1020.32
2020,09,26,18,02,1020.32
2020,09,26,18,03,1020.39
2020,09,26,18,04,1020.32
2020,09,26,18,05,1020.32
2020,09,26,18,06,1020.32
2020,09,26,18,07,1020.32
2020,09,26,18,08,1020.29
2020,09,26,18,09,1020.32
2020,09,26,18,10,1020.35
2020,09,26,18,11,1020.35
2020,09,26,18,12,1020.42
2020,09,26,18,13,1020.45
2020,09,26,18,14,1020.45
2020,09,26,18,15,1020.45
2020,09,26,18,16,1020.45
2020,09,26,18,17,1020.49
2020,09,26,18,18,1020.49
2020,09,26,18,19,1020.49
2020,09,26,18,20,1020.52
2020,09,26,18,21,1020.56
2020,09,26,18,22,1020.56
2020,09,26,18,23,1020.59
2020,09,26,18,24,1020.62
2020,09,26,18,25,1020.59
2020,09,26,18,26,1020.62
2020,09,26,18,27,1020.62
2020,09,26,18,28,1020.62
2020,09,26,18,29,1020.66
2020,09,26,18,30,1020.66
2020,09,26,18,31,1020.73
2020,09,26,18,32,1020.76
2020,09,26,18,33,1020.76